Location: Unspecified
(0.0000°N, 0.0000°E)
Time: 11:04:36
(UTC+00:00)

Altair - Pass Details

Date: 22 November 2019
Orbit: 1502 x 1682 km, 47.2° (Epoch: 14 December)

Event Time Altitude Azimuth Distance (km) Brightness Sun altitude
Rises 13:20:10 0° 274° (W) 4,830 10.4 59.4°
Reaches altitude 10° 13:25:51 10° 249° (WSW) 3,884 10.3 58.4°
Maximum altitude 13:29:53 13° 224° (SW) 3,668 10.3 57.6°
Drops below altitude 10° 13:33:59 10° 199° (SSW) 3,927 10.2 56.8°
Sets 13:39:54 0° 173° (S) 4,932 10.4 55.6°
